Time,TemperatureF,DewpointF,PressureIn,WindDirection,WindDirectionDegrees,WindSpeedMPH,WindSpeedGustMPH,Humidity,HourlyPrecipIn,Conditions,Clouds,dailyrainin,SoftwareType,DateUTC
2013-01-07 00:02:00,9.2,6.6,30.20,South,177,0.0,0.0,89,0.00,,,0.00,Wunderground v.1.15,2013-01-07 06:02:00,
2013-01-07 00:08:00,9.3,7.0,30.19,South,177,0.0,0.0,90,0.00,,,0.00,Wunderground v.1.15,2013-01-07 06:08:00,
2013-01-07 00:13:00,9.3,6.7,30.19,South,177,0.0,0.0,89,0.00,,,0.00,Wunderground v.1.15,2013-01-07 06:13:00,
2013-01-07 00:19:00,9.3,6.7,30.18,South,173,0.0,0.0,89,0.00,,,0.00,Wunderground v.1.15,2013-01-07 06:19:00,
2013-01-07 00:24:00,9.4,6.8,30.18,South,173,0.0,0.0,89,0.00,,,0.00,Wunderground v.1.15,2013-01-07 06:24:00,
2013-01-07 00:30:00,9.3,6.7,30.18,South,173,0.0,0.0,89,0.00,,,0.00,Wunderground v.1.15,2013-01-07 06:30:00,
2013-01-07 00:36:00,9.1,6.3,30.18,SSE,164,0.0,0.0,88,0.00,,,0.00,Wunderground v.1.15,2013-01-07 06:36:00,
2013-01-07 00:41:00,9.0,6.2,30.18,SSE,157,0.0,0.0,88,0.00,,,0.00,Wunderground v.1.15,2013-01-07 06:41:00,
2013-01-07 00:46:00,8.8,6.0,30.17,SSE,159,0.0,0.0,88,0.00,,,0.00,Wunderground v.1.15,2013-01-07 06:46:00,
2013-01-07 00:52:00,8.6,5.8,30.17,SSE,161,0.0,0.0,88,0.00,,,0.00,Wunderground v.1.15,2013-01-07 06:52:00,
2013-01-07 00:58:00,8.3,5.5,30.17,SSE,161,0.0,0.0,88,0.00,,,0.00,Wunderground v.1.15,2013-01-07 06:58:00,
2013-01-07 01:04:00,8.2,5.4,30.17,SSE,161,0.0,0.0,88,0.00,,,0.00,Wunderground v.1.15,2013-01-07 07:04:00,
2013-01-07 01:10:00,8.3,5.5,30.16,SSE,161,0.0,0.0,88,0.00,,,0.00,Wunderground v.1.15,2013-01-07 07:10:00,
2013-01-07 01:16:00,8.2,5.4,30.17,SSE,161,0.0,0.0,88,0.00,,,0.00,Wunderground v.1.15,2013-01-07 07:16:00,
2013-01-07 01:22:00,8.2,5.4,30.17,SSE,161,0.0,0.0,88,0.00,,,0.00,Wunderground v.1.15,2013-01-07 07:22:00,
2013-01-07 01:28:00,8.6,6.0,30.16,SSE,161,0.0,0.0,89,0.00,,,0.00,Wunderground v.1.15,2013-01-07 07:28:00,
2013-01-07 01:34:00,8.8,6.2,30.16,SSE,161,0.0,0.0,89,0.00,,,0.00,Wunderground v.1.15,2013-01-07 07:34:00,
2013-01-07 01:40:00,8.9,6.1,30.16,SSE,153,0.0,0.0,88,0.00,,,0.00,Wunderground v.1.15,2013-01-07 07:40:00,
2013-01-07 01:45:00,8.8,6.0,30.16,SSE,155,0.0,0.0,88,0.00,,,0.00,Wunderground v.1.15,2013-01-07 07:45:00,
2013-01-07 01:51:00,8.7,5.9,30.16,SSE,161,0.0,0.0,88,0.00,,,0.00,Wunderground v.1.15,2013-01-07 07:51:00,
2013-01-07 01:56:00,8.8,6.2,30.16,SSE,158,0.0,0.0,89,0.00,,,0.00,Wunderground v.1.15,2013-01-07 07:56:00,
2013-01-07 02:02:00,8.9,6.3,30.15,South,176,0.0,0.0,89,0.00,,,0.00,Wunderground v.1.15,2013-01-07 08:02:00,
2013-01-07 02:07:00,9.0,6.4,30.15,South,176,0.0,0.0,89,0.00,,,0.00,Wunderground v.1.15,2013-01-07 08:07:00,
2013-01-07 02:13:00,9.0,6.2,30.15,South,174,0.0,0.0,88,0.00,,,0.00,Wunderground v.1.15,2013-01-07 08:13:00,
2013-01-07 02:18:00,8.9,6.1,30.15,South,170,0.0,0.0,88,0.00,,,0.00,Wunderground v.1.15,2013-01-07 08:18:00,
2013-01-07 02:24:00,8.8,6.0,30.14,SW,230,0.0,0.0,88,0.00,,,0.00,Wunderground v.1.15,2013-01-07 08:24:00,
2013-01-07 02:29:00,8.8,6.0,30.14,SSW,197,0.0,0.0,88,0.00,,,0.00,Wunderground v.1.15,2013-01-07 08:29:00,
2013-01-07 02:35:00,9.0,6.2,30.14,SW,223,0.0,0.0,88,0.00,,,0.00,Wunderground v.1.15,2013-01-07 08:35:00,
2013-01-07 02:40:00,9.3,6.5,30.14,South,180,0.0,0.0,88,0.00,,,0.00,Wunderground v.1.15,2013-01-07 08:40:00,
2013-01-07 02:46:00,9.7,7.1,30.13,South,182,0.0,0.0,89,0.00,,,0.00,Wunderground v.1.15,2013-01-07 08:46:00,
2013-01-07 02:52:00,9.9,7.1,30.13,South,179,0.0,0.0,88,0.00,,,0.00,Wunderground v.1.15,2013-01-07 08:52:00,
2013-01-07 02:58:00,10.0,7.2,30.12,South,177,0.0,0.0,88,0.00,,,0.00,Wunderground v.1.15,2013-01-07 08:58:00,
2013-01-07 03:03:00,10.1,7.3,30.12,South,181,0.0,0.0,88,0.00,,,0.00,Wunderground v.1.15,2013-01-07 09:03:00,
2013-01-07 03:09:00,10.3,7.5,30.11,North,11,0.0,0.0,88,0.00,,,0.00,Wunderground v.1.15,2013-01-07 09:09:00,
2013-01-07 03:15:00,10.4,7.3,30.11,SSE,164,0.0,0.0,87,0.00,,,0.00,Wunderground v.1.15,2013-01-07 09:15:00,
2013-01-07 03:20:00,10.5,7.6,30.10,South,185,0.0,0.0,88,0.00,,,0.00,Wunderground v.1.15,2013-01-07 09:20:00,
2013-01-07 03:26:00,10.6,7.5,30.10,South,175,0.0,0.0,87,0.00,,,0.00,Wunderground v.1.15,2013-01-07 09:26:00,
2013-01-07 03:32:00,10.7,7.6,30.10,SW,219,0.0,0.0,87,0.00,,,0.00,Wunderground v.1.15,2013-01-07 09:32:00,
2013-01-07 03:37:00,10.7,7.6,30.09,SSW,198,0.0,0.0,87,0.00,,,0.00,Wunderground v.1.15,2013-01-07 09:37:00,
2013-01-07 03:43:00,10.5,7.4,30.09,SSW,206,0.0,0.0,87,0.00,,,0.00,Wunderground v.1.15,2013-01-07 09:43:00,
2013-01-07 03:49:00,10.4,7.3,30.09,South,183,0.0,0.0,87,0.00,,,0.00,Wunderground v.1.15,2013-01-07 09:49:00,
2013-01-07 03:55:00,10.6,7.7,30.08,South,190,0.0,0.0,88,0.00,,,0.00,Wunderground v.1.15,2013-01-07 09:55:00,
2013-01-07 04:00:00,10.8,7.7,30.08,East,83,0.0,0.0,87,0.00,,,0.00,Wunderground v.1.15,2013-01-07 10:00:00,
2013-01-07 04:06:00,11.1,8.0,30.08,South,172,0.0,0.0,87,0.00,,,0.00,Wunderground v.1.15,2013-01-07 10:06:00,
2013-01-07 04:12:00,11.2,8.1,30.07,South,181,0.0,0.0,87,0.00,,,0.00,Wunderground v.1.15,2013-01-07 10:12:00,
2013-01-07 04:18:00,11.3,8.2,30.07,SW,219,0.0,0.0,87,0.00,,,0.00,Wunderground v.1.15,2013-01-07 10:18:00,
2013-01-07 04:23:00,11.4,8.3,30.07,SSW,196,0.0,0.0,87,0.00,,,0.00,Wunderground v.1.15,2013-01-07 10:23:00,
2013-01-07 04:29:00,11.8,8.9,30.07,WSW,241,0.0,0.0,88,0.00,,,0.00,Wunderground v.1.15,2013-01-07 10:29:00,
2013-01-07 04:35:00,12.2,9.3,30.07,WSW,257,0.0,0.0,88,0.00,,,0.00,Wunderground v.1.15,2013-01-07 10:35:00,
2013-01-07 04:41:00,12.5,9.6,30.08,SW,217,0.0,0.0,88,0.00,,,0.00,Wunderground v.1.15,2013-01-07 10:41:00,
2013-01-07 04:46:00,12.5,9.4,30.07,SSW,202,0.0,0.0,87,0.00,,,0.00,Wunderground v.1.15,2013-01-07 10:46:00,
2013-01-07 04:52:00,12.4,9.3,30.07,South,177,0.0,0.0,87,0.00,,,0.00,Wunderground v.1.15,2013-01-07 10:52:00,
2013-01-07 04:58:00,12.2,9.1,30.06,SSE,163,0.0,0.0,87,0.00,,,0.00,Wunderground v.1.15,2013-01-07 10:58:00,
2013-01-07 05:03:00,12.2,9.3,30.06,SE,142,0.0,0.0,88,0.00,,,0.00,Wunderground v.1.15,2013-01-07 11:03:00,
2013-01-07 05:08:00,12.5,9.6,30.06,South,179,0.0,0.0,88,0.00,,,0.00,Wunderground v.1.15,2013-01-07 11:08:00,
2013-01-07 05:14:00,12.6,9.7,30.05,SSW,207,0.0,0.0,88,0.00,,,0.00,Wunderground v.1.15,2013-01-07 11:14:00,
2013-01-07 05:20:00,12.6,9.5,30.04,South,189,0.0,0.0,87,0.00,,,0.00,Wunderground v.1.15,2013-01-07 11:20:00,
2013-01-07 05:26:00,12.7,9.6,30.03,SE,128,0.0,0.0,87,0.00,,,0.00,Wunderground v.1.15,2013-01-07 11:26:00,
2013-01-07 05:31:00,12.6,9.5,30.04,South,177,0.0,0.0,87,0.00,,,0.00,Wunderground v.1.15,2013-01-07 11:31:00,
2013-01-07 05:37:00,12.8,9.9,30.03,South,172,0.0,0.0,88,0.00,,,0.00,Wunderground v.1.15,2013-01-07 11:37:00,
2013-01-07 05:43:00,12.8,9.9,30.03,South,186,0.0,0.0,88,0.00,,,0.00,Wunderground v.1.15,2013-01-07 11:43:00,
2013-01-07 05:48:00,12.9,10.0,30.03,SW,236,0.0,0.0,88,0.00,,,0.00,Wunderground v.1.15,2013-01-07 11:48:00,
2013-01-07 05:54:00,13.1,10.2,30.03,WSW,243,0.0,0.0,88,0.00,,,0.00,Wunderground v.1.15,2013-01-07 11:54:00,
2013-01-07 06:00:00,13.3,10.4,30.03,SSW,207,0.0,0.0,88,0.00,,,0.00,Wunderground v.1.15,2013-01-07 12:00:00,
2013-01-07 06:06:00,13.3,10.4,30.03,SSW,208,0.0,0.0,88,0.00,,,0.00,Wunderground v.1.15,2013-01-07 12:06:00,
2013-01-07 06:12:00,13.4,10.5,30.02,South,178,0.0,0.0,88,0.00,,,0.00,Wunderground v.1.15,2013-01-07 12:12:00,
2013-01-07 06:18:00,13.8,11.2,30.03,South,175,0.0,0.0,89,0.00,,,0.00,Wunderground v.1.15,2013-01-07 12:18:00,
2013-01-07 06:24:00,14.3,11.7,30.02,SSW,194,0.0,0.0,89,0.00,,,0.00,Wunderground v.1.15,2013-01-07 12:24:00,
2013-01-07 06:29:00,14.8,12.1,30.02,North,350,0.0,0.0,89,0.00,,,0.00,Wunderground v.1.15,2013-01-07 12:29:00,
2013-01-07 06:35:00,15.3,12.4,30.02,SW,231,0.0,0.0,88,0.00,,,0.00,Wunderground v.1.15,2013-01-07 12:35:00,
2013-01-07 06:41:00,15.8,12.9,30.02,South,188,0.0,0.0,88,0.00,,,0.00,Wunderground v.1.15,2013-01-07 12:41:00,
2013-01-07 06:47:00,16.1,13.2,30.01,SSW,197,0.0,0.0,88,0.00,,,0.00,Wunderground v.1.15,2013-01-07 12:47:00,
2013-01-07 06:53:00,16.3,13.4,30.00,SSE,160,0.0,0.0,88,0.00,,,0.00,Wunderground v.1.15,2013-01-07 12:53:00,
2013-01-07 06:59:00,16.7,13.8,30.00,WNW,283,0.0,0.0,88,0.00,,,0.00,Wunderground v.1.15,2013-01-07 12:59:00,
2013-01-07 07:05:00,16.8,13.6,30.00,SSW,210,0.0,0.0,87,0.00,,,0.00,Wunderground v.1.15,2013-01-07 13:05:00,
2013-01-07 07:11:00,17.1,13.9,30.00,South,188,0.0,0.0,87,0.00,,,0.00,Wunderground v.1.15,2013-01-07 13:11:00,
2013-01-07 07:17:00,17.3,14.1,30.00,South,173,0.0,0.0,87,0.00,,,0.00,Wunderground v.1.15,2013-01-07 13:17:00,
2013-01-07 07:23:00,17.6,14.4,30.00,SSE,153,0.0,0.0,87,0.00,,,0.00,Wunderground v.1.15,2013-01-07 13:23:00,
2013-01-07 07:28:00,17.9,14.7,30.00,SW,216,0.0,0.0,87,0.00,,,0.00,Wunderground v.1.15,2013-01-07 13:28:00,
2013-01-07 07:34:00,18.0,14.5,30.01,SSW,205,0.0,0.0,86,0.00,,,0.00,Wunderground v.1.15,2013-01-07 13:34:00,
2013-01-07 07:40:00,18.1,14.6,30.01,SSW,209,0.0,0.0,86,0.00,,,0.00,Wunderground v.1.15,2013-01-07 13:40:00,
2013-01-07 07:46:00,18.5,15.0,30.02,South,179,0.0,0.0,86,0.00,,,0.00,Wunderground v.1.15,2013-01-07 13:46:00,
2013-01-07 07:52:00,18.4,14.6,30.02,SSW,201,0.0,0.0,85,0.00,,,0.00,Wunderground v.1.15,2013-01-07 13:52:00,
2013-01-07 07:58:00,18.2,14.4,30.02,South,184,0.0,0.0,85,0.00,,,0.00,Wunderground v.1.15,2013-01-07 13:58:00,
2013-01-07 08:04:00,17.7,13.7,30.02,South,180,0.0,0.0,84,0.00,,,0.00,Wunderground v.1.15,2013-01-07 14:04:00,
2013-01-07 08:10:00,17.6,14.1,30.02,SE,143,0.0,0.0,86,0.00,,,0.00,Wunderground v.1.15,2013-01-07 14:10:00,
2013-01-07 08:16:00,17.5,13.8,30.01,SW,229,0.0,0.0,85,0.00,,,0.00,Wunderground v.1.15,2013-01-07 14:16:00,
2013-01-07 08:21:00,17.3,13.6,30.01,SSE,167,0.0,0.0,85,0.00,,,0.00,Wunderground v.1.15,2013-01-07 14:21:00,
2013-01-07 08:27:00,17.1,13.4,30.01,South,171,0.0,0.0,85,0.00,,,0.00,Wunderground v.1.15,2013-01-07 14:27:00,
2013-01-07 08:32:00,16.8,13.1,30.00,South,180,0.0,0.0,85,0.00,,,0.00,Wunderground v.1.15,2013-01-07 14:32:00,
2013-01-07 08:38:00,17.0,13.5,30.01,South,170,0.0,0.0,86,0.00,,,0.00,Wunderground v.1.15,2013-01-07 14:38:00,
2013-01-07 08:44:00,17.1,13.6,30.00,SSE,167,0.0,0.0,86,0.00,,,0.00,Wunderground v.1.15,2013-01-07 14:44:00,
2013-01-07 08:50:00,17.8,14.6,30.00,SSW,200,0.0,0.0,87,0.00,,,0.00,Wunderground v.1.15,2013-01-07 14:50:00,
2013-01-07 08:56:00,18.5,15.0,30.01,South,173,0.0,0.0,86,0.00,,,0.00,Wunderground v.1.15,2013-01-07 14:56:00,
2013-01-07 09:02:00,19.3,15.8,30.00,SE,142,0.0,0.0,86,0.00,,,0.00,Wunderground v.1.15,2013-01-07 15:02:00,
2013-01-07 09:08:00,19.8,15.7,30.00,South,173,0.0,0.0,84,0.00,,,0.00,Wunderground v.1.15,2013-01-07 15:08:00,
2013-01-07 09:13:00,20.1,16.0,30.00,SSE,157,0.0,0.0,84,0.00,,,0.00,Wunderground v.1.15,2013-01-07 15:13:00,
2013-01-07 09:18:00,20.7,16.6,30.00,SSW,200,0.0,0.0,84,0.00,,,0.00,Wunderground v.1.15,2013-01-07 15:18:00,
2013-01-07 09:24:00,21.5,17.1,30.00,SSE,158,0.0,0.0,83,0.00,,,0.00,Wunderground v.1.15,2013-01-07 15:24:00,
2013-01-07 09:30:00,21.9,17.2,30.00,SSW,212,0.0,0.0,82,0.00,,,0.00,Wunderground v.1.15,2013-01-07 15:30:00,
2013-01-07 09:36:00,22.3,17.6,30.00,SE,130,0.0,0.0,82,0.00,,,0.00,Wunderground v.1.15,2013-01-07 15:36:00,
2013-01-07 09:42:00,23.2,18.5,30.00,SE,141,0.0,0.0,82,0.00,,,0.00,Wunderground v.1.15,2013-01-07 15:42:00,
2013-01-07 09:48:00,24.0,18.7,30.00,East,96,0.0,0.0,80,0.00,,,0.00,Wunderground v.1.15,2013-01-07 15:48:00,
2013-01-07 09:54:00,24.9,19.3,29.99,SW,223,0.0,0.0,79,0.00,,,0.00,Wunderground v.1.15,2013-01-07 15:54:00,
2013-01-07 10:00:00,25.8,19.9,29.99,SSW,196,0.0,0.0,78,0.00,,,0.00,Wunderground v.1.15,2013-01-07 16:00:00,
2013-01-07 10:06:00,26.5,20.0,29.99,SE,124,0.0,0.0,76,0.00,,,0.00,Wunderground v.1.15,2013-01-07 16:06:00,
2013-01-07 10:11:00,26.9,20.3,29.99,SSE,161,0.0,0.0,76,0.00,,,0.00,Wunderground v.1.15,2013-01-07 16:11:00,
2013-01-07 10:17:00,27.5,20.6,29.99,SSW,198,0.0,0.0,75,0.00,,,0.00,Wunderground v.1.15,2013-01-07 16:17:00,
2013-01-07 10:23:00,28.1,20.9,29.99,SW,215,0.0,0.0,74,0.00,,,0.00,Wunderground v.1.15,2013-01-07 16:23:00,
2013-01-07 10:29:00,28.6,21.4,29.99,SSW,209,0.0,0.0,74,0.00,,,0.00,Wunderground v.1.15,2013-01-07 16:29:00,
2013-01-07 10:35:00,29.3,21.7,29.98,SSW,208,0.0,0.0,73,0.00,,,0.00,Wunderground v.1.15,2013-01-07 16:35:00,
2013-01-07 10:41:00,30.0,22.7,29.98,SSW,208,0.0,0.0,74,0.00,,,0.00,Wunderground v.1.15,2013-01-07 16:41:00,
2013-01-07 10:47:00,30.7,22.7,29.98,WSW,237,0.0,0.0,72,0.00,,,0.00,Wunderground v.1.15,2013-01-07 16:47:00,
2013-01-07 10:52:00,31.0,22.7,29.97,SSW,209,0.0,0.0,71,0.00,,,0.00,Wunderground v.1.15,2013-01-07 16:52:00,
2013-01-07 10:58:00,31.4,23.1,29.97,SW,231,0.0,0.0,71,0.00,,,0.00,Wunderground v.1.15,2013-01-07 16:58:00,
2013-01-07 11:04:00,31.7,23.0,29.97,South,182,0.0,0.0,70,0.00,,,0.00,Wunderground v.1.15,2013-01-07 17:04:00,
2013-01-07 11:10:00,32.2,23.5,29.96,SSW,211,0.0,0.0,70,0.00,,,0.00,Wunderground v.1.15,2013-01-07 17:10:00,
2013-01-07 11:16:00,32.5,23.8,29.96,SW,236,0.0,0.0,70,0.00,,,0.00,Wunderground v.1.15,2013-01-07 17:16:00,
2013-01-07 11:22:00,32.6,23.6,29.95,SW,214,0.0,0.0,69,0.00,,,0.00,Wunderground v.1.15,2013-01-07 17:22:00,
2013-01-07 11:28:00,32.6,23.6,29.95,West,259,0.0,0.0,69,0.00,,,0.00,Wunderground v.1.15,2013-01-07 17:28:00,
2013-01-07 11:33:00,32.6,23.6,29.95,WSW,247,0.0,0.0,69,0.00,,,0.00,Wunderground v.1.15,2013-01-07 17:33:00,
2013-01-07 11:39:00,32.9,23.8,29.94,SW,235,0.0,0.0,69,0.00,,,0.00,Wunderground v.1.15,2013-01-07 17:39:00,
2013-01-07 11:45:00,32.8,23.7,29.94,SW,229,0.0,0.0,69,0.00,,,0.00,Wunderground v.1.15,2013-01-07 17:45:00,
2013-01-07 11:51:00,32.7,24.0,29.94,SW,224,0.0,0.0,70,0.00,,,0.00,Wunderground v.1.15,2013-01-07 17:51:00,
2013-01-07 11:57:00,33.0,24.3,29.94,SW,215,0.0,0.0,70,0.00,,,0.00,Wunderground v.1.15,2013-01-07 17:57:00,
2013-01-07 12:02:00,33.1,24.0,29.94,SW,217,0.0,0.0,69,0.00,,,0.00,Wunderground v.1.15,2013-01-07 18:02:00,
2013-01-07 12:08:00,33.0,24.3,29.93,SW,222,0.0,0.0,70,0.00,,,0.00,Wunderground v.1.15,2013-01-07 18:08:00,
2013-01-07 12:14:00,33.2,24.5,29.93,West,266,0.0,0.0,70,0.00,,,0.00,Wunderground v.1.15,2013-01-07 18:14:00,
2013-01-07 12:20:00,33.5,24.8,29.93,SSW,209,0.0,0.0,70,0.00,,,0.00,Wunderground v.1.15,2013-01-07 18:20:00,
2013-01-07 12:26:00,33.8,24.7,29.93,WSW,248,0.0,0.0,69,0.00,,,0.00,Wunderground v.1.15,2013-01-07 18:26:00,
2013-01-07 12:31:00,33.6,24.9,29.93,SW,219,0.0,0.0,70,0.00,,,0.00,Wunderground v.1.15,2013-01-07 18:31:00,
2013-01-07 12:37:00,33.3,24.6,29.94,WSW,257,0.0,0.0,70,0.00,,,0.00,Wunderground v.1.15,2013-01-07 18:37:00,
2013-01-07 12:43:00,33.6,25.2,29.93,WSW,253,0.0,0.0,71,0.00,,,0.00,Wunderground v.1.15,2013-01-07 18:43:00,
2013-01-07 12:49:00,34.1,25.0,29.93,WSW,254,0.0,0.0,69,0.00,,,0.00,Wunderground v.1.15,2013-01-07 18:49:00,
2013-01-07 12:55:00,34.0,25.2,29.94,South,182,0.0,0.0,70,0.00,,,0.00,Wunderground v.1.15,2013-01-07 18:55:00,
2013-01-07 13:01:00,34.2,25.4,29.93,WSW,238,0.0,0.0,70,0.00,,,0.00,Wunderground v.1.15,2013-01-07 19:01:00,
2013-01-07 13:06:00,34.1,25.0,29.93,SW,217,0.0,0.0,69,0.00,,,0.00,Wunderground v.1.15,2013-01-07 19:06:00,
2013-01-07 13:12:00,33.9,25.1,29.93,SW,215,0.0,0.0,70,0.00,,,0.00,Wunderground v.1.15,2013-01-07 19:12:00,
2013-01-07 13:17:00,34.1,25.7,29.94,SSW,194,0.0,0.0,71,0.00,,,0.00,Wunderground v.1.15,2013-01-07 19:17:00,
2013-01-07 13:23:00,34.5,25.7,29.94,SW,227,0.0,0.0,70,0.00,,,0.00,Wunderground v.1.15,2013-01-07 19:23:00,
2013-01-07 13:29:00,34.6,25.8,29.94,WSW,254,0.0,0.0,70,0.00,,,0.00,Wunderground v.1.15,2013-01-07 19:29:00,
2013-01-07 13:35:00,34.3,25.9,29.94,WSW,243,0.0,0.0,71,0.00,,,0.00,Wunderground v.1.15,2013-01-07 19:35:00,
2013-01-07 13:41:00,33.9,25.8,29.94,WSW,257,0.0,0.0,72,0.00,,,0.00,Wunderground v.1.15,2013-01-07 19:41:00,
2013-01-07 13:46:00,33.9,25.8,29.94,SW,214,0.0,0.0,72,0.00,,,0.00,Wunderground v.1.15,2013-01-07 19:46:00,
2013-01-07 13:52:00,34.1,25.7,29.94,SW,232,0.0,0.0,71,0.00,,,0.00,Wunderground v.1.15,2013-01-07 19:52:00,
2013-01-07 13:57:00,34.4,26.0,29.94,SW,230,0.0,0.0,71,0.00,,,0.00,Wunderground v.1.15,2013-01-07 19:57:00,
2013-01-07 14:03:00,34.8,26.4,29.94,SW,215,0.0,0.0,71,0.00,,,0.00,Wunderground v.1.15,2013-01-07 20:03:00,
2013-01-07 14:08:00,35.1,26.3,29.94,SSW,206,0.0,0.0,70,0.00,,,0.00,Wunderground v.1.15,2013-01-07 20:08:00,
2013-01-07 14:14:00,35.1,25.9,29.93,SSW,200,0.0,0.0,69,0.00,,,0.00,Wunderground v.1.15,2013-01-07 20:14:00,
2013-01-07 14:19:00,35.3,26.5,29.93,SSW,205,0.0,0.0,70,0.00,,,0.00,Wunderground v.1.15,2013-01-07 20:19:00,
2013-01-07 14:21:00,35.4,26.6,29.93,SW,215,0.0,0.0,70,0.00,,,0.00,Wunderground v.1.15,2013-01-07 20:21:00,
2013-01-07 14:27:00,35.4,26.6,29.93,SW,233,0.0,0.0,70,0.00,,,0.00,Wunderground v.1.15,2013-01-07 20:27:00,
2013-01-07 14:33:00,35.2,26.0,29.93,SSW,199,0.0,0.0,69,0.00,,,0.00,Wunderground v.1.15,2013-01-07 20:33:00,
2013-01-07 14:39:00,34.8,26.0,29.93,West,267,0.0,0.0,70,0.00,,,0.00,Wunderground v.1.15,2013-01-07 20:39:00,
2013-01-07 14:45:00,34.7,25.9,29.93,SW,226,0.0,0.0,70,0.00,,,0.00,Wunderground v.1.15,2013-01-07 20:45:00,
2013-01-07 14:51:00,34.4,26.0,29.93,SW,227,0.0,0.0,71,0.00,,,0.00,Wunderground v.1.15,2013-01-07 20:51:00,
2013-01-07 14:56:00,34.3,25.9,29.94,SSW,208,0.0,0.0,71,0.00,,,0.00,Wunderground v.1.15,2013-01-07 20:56:00,
2013-01-07 15:01:00,34.2,25.8,29.94,WSW,258,0.0,0.0,71,0.00,,,0.00,Wunderground v.1.15,2013-01-07 21:01:00,
2013-01-07 15:07:00,34.2,25.8,29.94,SW,236,0.0,0.0,71,0.00,,,0.00,Wunderground v.1.15,2013-01-07 21:07:00,
2013-01-07 15:13:00,34.1,26.0,29.94,WSW,250,0.0,0.0,72,0.00,,,0.00,Wunderground v.1.15,2013-01-07 21:13:00,
2013-01-07 15:19:00,33.9,25.8,29.95,SW,234,0.0,0.0,72,0.00,,,0.00,Wunderground v.1.15,2013-01-07 21:19:00,
2013-01-07 15:24:00,33.7,25.6,29.95,SW,217,0.0,0.0,72,0.00,,,0.00,Wunderground v.1.15,2013-01-07 21:24:00,
2013-01-07 15:30:00,33.4,25.3,29.95,SW,227,0.0,0.0,72,0.00,,,0.00,Wunderground v.1.15,2013-01-07 21:30:00,
2013-01-07 15:35:00,33.2,25.5,29.95,WSW,244,0.0,0.0,73,0.00,,,0.00,Wunderground v.1.15,2013-01-07 21:35:00,
2013-01-07 15:41:00,33.1,25.4,29.96,West,269,0.0,0.0,73,0.00,,,0.00,Wunderground v.1.15,2013-01-07 21:41:00,
2013-01-07 15:47:00,33.0,25.3,29.96,WSW,258,0.0,0.0,73,0.00,,,0.00,Wunderground v.1.15,2013-01-07 21:47:00,
2013-01-07 15:52:00,33.0,25.6,29.96,SSW,211,0.0,0.0,74,0.00,,,0.00,Wunderground v.1.15,2013-01-07 21:52:00,
2013-01-07 15:57:00,32.9,25.5,29.96,SW,229,0.0,0.0,74,0.00,,,0.00,Wunderground v.1.15,2013-01-07 21:57:00,
2013-01-07 16:03:00,32.9,25.5,29.96,SSW,213,0.0,0.0,74,0.00,,,0.00,Wunderground v.1.15,2013-01-07 22:03:00,
2013-01-07 16:09:00,32.7,25.3,29.96,WSW,248,0.0,0.0,74,0.00,,,0.00,Wunderground v.1.15,2013-01-07 22:09:00,
2013-01-07 16:15:00,32.5,25.5,29.96,SSW,205,0.0,0.0,75,0.00,,,0.00,Wunderground v.1.15,2013-01-07 22:15:00,
2013-01-07 16:21:00,32.3,25.3,29.96,WSW,246,0.0,0.0,75,0.00,,,0.00,Wunderground v.1.15,2013-01-07 22:21:00,
2013-01-07 16:27:00,32.1,25.1,29.96,SSW,205,0.0,0.0,75,0.00,,,0.00,Wunderground v.1.15,2013-01-07 22:27:00,
2013-01-07 16:33:00,31.8,25.1,29.96,SSW,213,0.0,0.0,76,0.00,,,0.00,Wunderground v.1.15,2013-01-07 22:33:00,
2013-01-07 16:38:00,31.7,25.0,29.96,SSW,194,0.0,0.0,76,0.00,,,0.00,Wunderground v.1.15,2013-01-07 22:38:00,
2013-01-07 16:43:00,31.5,25.1,29.96,WSW,242,0.0,0.0,77,0.00,,,0.00,Wunderground v.1.15,2013-01-07 22:43:00,
2013-01-07 16:49:00,31.1,24.7,29.96,SW,228,0.0,0.0,77,0.00,,,0.00,Wunderground v.1.15,2013-01-07 22:49:00,
2013-01-07 16:54:00,31.0,24.9,29.97,SSW,209,0.0,0.0,78,0.00,,,0.00,Wunderground v.1.15,2013-01-07 22:54:00,
2013-01-07 17:00:00,30.8,24.7,29.97,SW,216,0.0,0.0,78,0.00,,,0.00,Wunderground v.1.15,2013-01-07 23:00:00,
2013-01-07 17:06:00,30.7,24.7,29.97,SSW,213,0.0,0.0,78,0.00,,,0.00,Wunderground v.1.15,2013-01-07 23:06:00,
2013-01-07 17:11:00,30.3,24.3,29.96,SW,226,0.0,0.0,78,0.00,,,0.00,Wunderground v.1.15,2013-01-07 23:11:00,
2013-01-07 17:16:00,30.1,24.4,29.96,SW,225,0.0,0.0,79,0.00,,,0.00,Wunderground v.1.15,2013-01-07 23:16:00,
2013-01-07 17:21:00,30.1,24.4,29.96,SW,231,0.0,0.0,79,0.00,,,0.00,Wunderground v.1.15,2013-01-07 23:21:00,
2013-01-07 17:27:00,30.1,24.7,29.96,SW,215,0.0,0.0,80,0.00,,,0.00,Wunderground v.1.15,2013-01-07 23:27:00,
2013-01-07 17:32:00,30.1,24.4,29.97,SW,227,0.0,0.0,79,0.00,,,0.00,Wunderground v.1.15,2013-01-07 23:32:00,
2013-01-07 17:38:00,30.0,24.6,29.97,SSW,210,0.0,0.0,80,0.00,,,0.00,Wunderground v.1.15,2013-01-07 23:38:00,
2013-01-07 17:43:00,30.0,24.6,29.97,WSW,238,0.0,0.0,80,0.00,,,0.00,Wunderground v.1.15,2013-01-07 23:43:00,
2013-01-07 17:49:00,30.0,24.6,29.97,SW,218,0.0,0.0,80,0.00,,,0.00,Wunderground v.1.15,2013-01-07 23:49:00,
2013-01-07 17:55:00,29.8,24.4,29.98,WSW,242,0.0,0.0,80,0.00,,,0.00,Wunderground v.1.15,2013-01-07 23:55:00,
2013-01-07 18:00:00,29.8,24.4,29.98,SW,231,0.0,0.0,80,0.00,,,0.00,Wunderground v.1.15,2013-01-08 00:00:00,
2013-01-07 18:06:00,29.6,24.2,29.98,SW,229,0.0,0.0,80,0.00,,,0.00,Wunderground v.1.15,2013-01-08 00:06:00,
2013-01-07 18:11:00,29.5,24.1,29.98,WSW,249,0.0,0.0,80,0.00,,,0.00,Wunderground v.1.15,2013-01-08 00:11:00,
2013-01-07 18:17:00,29.2,23.8,29.98,SW,236,0.0,0.0,80,0.00,,,0.00,Wunderground v.1.15,2013-01-08 00:17:00,
2013-01-07 18:23:00,29.1,24.0,29.98,WSW,244,0.0,0.0,81,0.00,,,0.00,Wunderground v.1.15,2013-01-08 00:23:00,
2013-01-07 18:29:00,29.0,23.9,29.98,SW,217,0.0,0.0,81,0.00,,,0.00,Wunderground v.1.15,2013-01-08 00:29:00,
2013-01-07 18:35:00,29.0,23.9,29.98,WSW,248,0.0,0.0,81,0.00,,,0.00,Wunderground v.1.15,2013-01-08 00:35:00,
2013-01-07 18:41:00,28.8,24.0,29.98,SSW,208,0.0,0.0,82,0.00,,,0.00,Wunderground v.1.15,2013-01-08 00:41:00,
2013-01-07 18:47:00,28.6,23.8,29.98,SW,219,0.0,0.0,82,0.00,,,0.00,Wunderground v.1.15,2013-01-08 00:47:00,
2013-01-07 18:53:00,28.6,23.8,29.99,SW,233,0.0,0.0,82,0.00,,,0.00,Wunderground v.1.15,2013-01-08 00:53:00,
2013-01-07 18:59:00,28.6,23.8,29.99,WSW,240,0.0,0.0,82,0.00,,,0.00,Wunderground v.1.15,2013-01-08 00:59:00,
2013-01-07 19:05:00,28.5,24.0,29.99,SSW,213,0.0,0.0,83,0.00,,,0.00,Wunderground v.1.15,2013-01-08 01:05:00,
2013-01-07 19:11:00,28.3,23.5,29.98,WSW,242,0.0,0.0,82,0.00,,,0.00,Wunderground v.1.15,2013-01-08 01:11:00,
2013-01-07 19:17:00,28.2,23.7,29.98,WSW,250,0.0,0.0,83,0.00,,,0.00,Wunderground v.1.15,2013-01-08 01:17:00,
2013-01-07 19:23:00,27.9,23.4,29.99,SW,231,0.0,0.0,83,0.00,,,0.00,Wunderground v.1.15,2013-01-08 01:23:00,
2013-01-07 19:28:00,27.9,23.4,29.99,WSW,238,0.0,0.0,83,0.00,,,0.00,Wunderground v.1.15,2013-01-08 01:28:00,
2013-01-07 19:34:00,27.7,23.2,29.99,SW,229,0.0,0.0,83,0.00,,,0.00,Wunderground v.1.15,2013-01-08 01:34:00,
2013-01-07 19:40:00,27.5,23.0,29.99,WSW,247,0.0,0.0,83,0.00,,,0.00,Wunderground v.1.15,2013-01-08 01:40:00,
2013-01-07 19:46:00,27.5,23.0,29.98,WSW,243,0.0,0.0,83,0.00,,,0.00,Wunderground v.1.15,2013-01-08 01:46:00,
2013-01-07 19:52:00,27.3,22.8,29.99,SW,221,0.0,0.0,83,0.00,,,0.00,Wunderground v.1.15,2013-01-08 01:52:00,
2013-01-07 19:58:00,27.1,22.6,29.98,WSW,238,0.0,0.0,83,0.00,,,0.00,Wunderground v.1.15,2013-01-08 01:58:00,
2013-01-07 20:03:00,26.9,22.7,29.98,WSW,245,0.0,0.0,84,0.00,,,0.00,Wunderground v.1.15,2013-01-08 02:03:00,
2013-01-07 20:09:00,26.6,22.4,29.98,WSW,246,0.0,0.0,84,0.00,,,0.00,Wunderground v.1.15,2013-01-08 02:09:00,
2013-01-07 20:14:00,26.5,22.6,29.98,WSW,237,0.0,0.0,85,0.00,,,0.00,Wunderground v.1.15,2013-01-08 02:14:00,
2013-01-07 20:20:00,26.3,22.4,29.98,SW,233,0.0,0.0,85,0.00,,,0.00,Wunderground v.1.15,2013-01-08 02:20:00,
2013-01-07 20:26:00,26.1,22.2,29.99,WSW,242,0.0,0.0,85,0.00,,,0.00,Wunderground v.1.15,2013-01-08 02:26:00,
2013-01-07 20:32:00,26.0,22.1,29.99,SW,231,0.0,0.0,85,0.00,,,0.00,Wunderground v.1.15,2013-01-08 02:32:00,
2013-01-07 20:37:00,25.8,21.9,29.99,SW,232,0.0,0.0,85,0.00,,,0.00,Wunderground v.1.15,2013-01-08 02:37:00,
2013-01-07 20:43:00,25.6,22.0,30.00,WSW,241,0.0,0.0,86,0.00,,,0.00,Wunderground v.1.15,2013-01-08 02:43:00,
2013-01-07 20:49:00,25.4,21.8,30.00,SW,236,0.0,0.0,86,0.00,,,0.00,Wunderground v.1.15,2013-01-08 02:49:00,
2013-01-07 20:55:00,25.3,21.7,29.99,WSW,242,0.0,0.0,86,0.00,,,0.00,Wunderground v.1.15,2013-01-08 02:55:00,
2013-01-07 21:00:00,25.1,21.8,30.00,SW,225,0.0,0.0,87,0.00,,,0.00,Wunderground v.1.15,2013-01-08 03:00:00,
2013-01-07 21:06:00,24.9,21.6,30.00,SSW,208,0.0,0.0,87,0.00,,,0.00,Wunderground v.1.15,2013-01-08 03:06:00,
2013-01-07 21:12:00,25.0,21.9,29.99,SSW,213,0.0,0.0,88,0.00,,,0.00,Wunderground v.1.15,2013-01-08 03:12:00,
2013-01-07 21:18:00,24.9,21.8,30.00,SW,214,0.0,0.0,88,0.00,,,0.00,Wunderground v.1.15,2013-01-08 03:18:00,
2013-01-07 21:23:00,25.0,22.2,30.00,SSW,207,0.0,0.0,89,0.00,,,0.00,Wunderground v.1.15,2013-01-08 03:23:00,
2013-01-07 21:29:00,25.1,22.3,30.00,SW,231,0.0,0.0,89,0.00,,,0.00,Wunderground v.1.15,2013-01-08 03:29:00,
2013-01-07 21:35:00,25.0,21.9,30.00,SSW,211,0.0,0.0,88,0.00,,,0.00,Wunderground v.1.15,2013-01-08 03:35:00,
2013-01-07 21:41:00,25.0,22.2,30.00,SSW,213,0.0,0.0,89,0.00,,,0.00,Wunderground v.1.15,2013-01-08 03:41:00,
2013-01-07 21:46:00,24.9,22.1,30.00,WSW,245,0.0,0.0,89,0.00,,,0.00,Wunderground v.1.15,2013-01-08 03:46:00,
2013-01-07 21:52:00,24.8,21.8,30.00,SW,221,0.0,0.0,88,0.00,,,0.00,Wunderground v.1.15,2013-01-08 03:52:00,
2013-01-07 21:57:00,24.6,21.6,30.00,SW,225,0.0,0.0,88,0.00,,,0.00,Wunderground v.1.15,2013-01-08 03:57:00,
2013-01-07 22:02:00,24.4,21.6,30.00,SW,221,0.0,0.0,89,0.00,,,0.00,Wunderground v.1.15,2013-01-08 04:02:00,
2013-01-07 22:08:00,24.2,21.4,30.00,SW,223,0.0,0.0,89,0.00,,,0.00,Wunderground v.1.15,2013-01-08 04:08:00,
2013-01-07 22:14:00,24.1,21.3,30.00,SW,229,0.0,0.0,89,0.00,,,0.00,Wunderground v.1.15,2013-01-08 04:14:00,
2013-01-07 22:20:00,23.9,21.1,30.00,SW,215,0.0,0.0,89,0.00,,,0.00,Wunderground v.1.15,2013-01-08 04:20:00,
2013-01-07 22:26:00,23.8,21.3,30.00,SW,216,0.0,0.0,90,0.00,,,0.00,Wunderground v.1.15,2013-01-08 04:26:00,
2013-01-07 22:32:00,23.8,21.3,30.00,SW,236,0.0,0.0,90,0.00,,,0.00,Wunderground v.1.15,2013-01-08 04:32:00,
2013-01-07 22:38:00,23.7,21.2,30.00,WSW,237,0.0,0.0,90,0.00,,,0.00,Wunderground v.1.15,2013-01-08 04:38:00,
2013-01-07 22:44:00,23.6,21.1,30.00,WSW,242,0.0,0.0,90,0.00,,,0.00,Wunderground v.1.15,2013-01-08 04:44:00,
2013-01-07 22:50:00,23.7,21.2,30.01,WSW,238,0.0,0.0,90,0.00,,,0.00,Wunderground v.1.15,2013-01-08 04:50:00,
2013-01-07 22:55:00,23.6,21.1,30.01,WSW,241,0.0,0.0,90,0.00,,,0.00,Wunderground v.1.15,2013-01-08 04:55:00,
2013-01-07 23:01:00,23.4,20.9,30.01,WSW,250,0.0,0.0,90,0.00,,,0.00,Wunderground v.1.15,2013-01-08 05:01:00,
2013-01-07 23:02:00,23.3,20.8,30.01,WSW,250,0.0,0.0,90,0.00,,,0.00,Wunderground v.1.15,2013-01-08 05:02:00,
2013-01-07 23:03:00,23.3,20.8,30.01,WSW,246,0.0,0.0,90,0.00,,,0.00,Wunderground v.1.15,2013-01-08 05:03:00,
2013-01-07 23:09:00,22.9,20.4,30.01,SW,224,0.0,0.0,90,0.00,,,0.00,Wunderground v.1.15,2013-01-08 05:09:00,
2013-01-07 23:14:00,23.0,20.8,30.01,SSW,210,0.0,0.0,91,0.00,,,0.00,Wunderground v.1.15,2013-01-08 05:14:00,
2013-01-07 23:19:00,22.9,20.7,30.01,South,187,0.0,0.0,91,0.00,,,0.00,Wunderground v.1.15,2013-01-08 05:19:00,
2013-01-07 23:25:00,22.6,20.1,30.01,SW,229,0.0,0.0,90,0.00,,,0.00,Wunderground v.1.15,2013-01-08 05:25:00,
2013-01-07 23:31:00,22.4,20.2,30.01,SW,232,0.0,0.0,91,0.00,,,0.00,Wunderground v.1.15,2013-01-08 05:31:00,
2013-01-07 23:37:00,22.3,20.1,30.01,SSW,207,0.0,0.0,91,0.00,,,0.00,Wunderground v.1.15,2013-01-08 05:37:00,
2013-01-07 23:43:00,22.3,20.1,30.01,SSW,206,0.0,0.0,91,0.00,,,0.00,Wunderground v.1.15,2013-01-08 05:43:00,
2013-01-07 23:49:00,22.3,20.3,30.01,SSW,208,0.0,0.0,92,0.00,,,0.00,Wunderground v.1.15,2013-01-08 05:49:00,
2013-01-07 23:54:00,22.2,20.2,30.01,SW,215,0.0,0.0,92,0.00,,,0.00,Wunderground v.1.15,2013-01-08 05:54:00,